Augusta Bush, GA

11:48 PM EDT on April 24, 2017 (GMT -0400)
Augusta Regional At Bush

Weather History for KAGS - July, 2013

Change the Weather History Date:

Tuesday, July 23, 2013

  Actual Average Record
Temperature  
Mean Temperature 83 °F 82 °F  
Max Temperature 92 °F 94 °F 105 °F (1952)
Min Temperature 74 °F 70 °F 59 °F (2007)
Degree Days  
Heating Degree Days 0 0  
Month to date heating degree days 0 0  
Since 1 June heating degree days 0 0  
Since 1 July heating degree days 0 0  
Cooling Degree Days 18 17  
Month to date cooling degree days 337 383  
Year to date cooling degree days 938 1074  
Since 1 June cooling degree days 729 791  
Growing Degree Days 32 (Base 50)    
Moisture  
Dew Point 72 °F    
Average Humidity 73    
Maximum Humidity 94    
Minimum Humidity 52    
Precipitation  
Precipitation 0.00 in 0.14 in 2.33 in (1938)
Month to date precipitation 7.22 3.16  
Year to date precipitation 37.65 25.38  
Sea Level Pressure  
Sea Level Pressure 29.89 in    
Wind  
Wind Speed 8 mph (WSW)    
Max Wind Speed 17 mph    
Max Gust Speed 23 mph    
Visibility 10 miles    
Events      
T = Trace of Precipitation, MM = Missing Value Source: NWS Daily Summary

Daily Weather History Graph

Daily Weather History Graph

Search for Another Location

Airport or City:

Trip Planner

Search our weather history database for the weather conditions in past years. The results will help you decide how hot, cold, wet, or windy it might be!

Date:

Astronomy

Jul. 23, 2013 Rise Set
Actual Time 6:34 AM EDT 8:33 PM EDT
Civil Twilight 6:06 AM EDT 9:01 PM EDT
Nautical Twilight 5:33 AM EDT 9:35 PM EDT
Astronomical Twilight 4:57 AM EDT 10:10 PM EDT
Moon 9:09 PM EDT (7/23) 7:35 AM EDT (7/23)
Length of Visible Light 14h 54m
Length of Day
13h 59m
Full, 99% of the Moon is Illuminated
Jul 23
Full
Jul 29
Last Quarter
Aug 6
New
Aug 14
First Quarter
Aug 20
Full

Hourly Weather History & Observations

Time (EDT) Temp. Heat Index Dew Point Humidity Pressure Visibility Wind Dir Wind Speed Gust Speed Precip Events Conditions
12:53 AM 75.9 °F - 73.0 °F 91% 29.93 in 10.0 mi SW 5.8 mph - N/A   Mostly Cloudy
1:53 AM 75.9 °F - 72.0 °F 87% 29.91 in 10.0 mi SW 10.4 mph - N/A   Scattered Clouds
2:53 AM 75.0 °F - 71.1 °F 87% 29.91 in 10.0 mi WSW 5.8 mph - N/A   Scattered Clouds
3:53 AM 75.0 °F - 71.1 °F 87% 29.90 in 10.0 mi WSW 10.4 mph - N/A   Scattered Clouds
4:53 AM 75.0 °F - 71.1 °F 87% 29.90 in 10.0 mi WSW 9.2 mph - N/A   Clear
5:53 AM 75.0 °F - 71.1 °F 87% 29.92 in 10.0 mi WSW 9.2 mph - 0.01 in   Scattered Clouds
6:18 AM 75.2 °F - 71.6 °F 89% 29.93 in 10.0 mi WSW 10.4 mph - 0.01 in   Mostly Cloudy
6:27 AM 73.4 °F - 71.6 °F 94% 29.93 in 10.0 mi WSW 6.9 mph - 0.01 in   Scattered Clouds
6:53 AM 73.9 °F - 71.1 °F 91% 29.92 in 10.0 mi WSW 9.2 mph - 0.01 in   Partly Cloudy
6:54 AM 73.4 °F - 71.6 °F 94% 29.93 in 10.0 mi WSW 9.2 mph - N/A   Clear
7:00 AM 73.4 °F - 71.6 °F 94% 29.93 in 10.0 mi WSW 8.1 mph - N/A   Scattered Clouds
7:53 AM 75.9 °F - 71.1 °F 85% 29.92 in 10.0 mi WSW 6.9 mph - N/A   Partly Cloudy
8:53 AM 78.1 °F - 70.0 °F 76% 29.92 in 10.0 mi West 9.2 mph - N/A   Partly Cloudy
9:53 AM 80.1 °F 83.2 °F 70.0 °F 71% 29.92 in 10.0 mi West 13.8 mph - N/A   Scattered Clouds
10:53 AM 82.9 °F 87.0 °F 70.0 °F 65% 29.92 in 10.0 mi West 9.2 mph - 0.01 in   Scattered Clouds
11:53 AM 86.0 °F 90.7 °F 70.0 °F 59% 29.92 in 10.0 mi West 6.9 mph 17.3 mph N/A   Scattered Clouds
12:53 PM 88.0 °F 93.8 °F 71.1 °F 57% 29.91 in 10.0 mi West 9.2 mph - N/A   Scattered Clouds
1:53 PM 90.0 °F 95.4 °F 70.0 °F 52% 29.88 in 10.0 mi WNW 10.4 mph 18.4 mph N/A   Scattered Clouds
2:53 PM 90.0 °F 95.4 °F 70.0 °F 52% 29.86 in 10.0 mi West 10.4 mph 23.0 mph N/A   Scattered Clouds
3:53 PM 91.0 °F 97.6 °F 71.1 °F 52% 29.83 in 10.0 mi WNW 11.5 mph - N/A   Scattered Clouds
4:53 PM 91.0 °F 98.2 °F 72.0 °F 53% 29.81 in 10.0 mi West 10.4 mph - N/A   Partly Cloudy
5:53 PM 91.0 °F 98.2 °F 72.0 °F 53% 29.81 in 10.0 mi WSW 8.1 mph - N/A   Mostly Cloudy
6:53 PM 84.9 °F 92.1 °F 73.9 °F 69% 29.82 in 10.0 mi WSW 10.4 mph - N/A   Mostly Cloudy
7:53 PM 81.0 °F 86.7 °F 75.0 °F 82% 29.81 in 10.0 mi WSW 4.6 mph - N/A   Clear
8:53 PM 80.1 °F 84.5 °F 73.9 °F 81% 29.84 in 10.0 mi SW 5.8 mph - N/A   Clear
9:53 PM 78.1 °F - 73.9 °F 87% 29.84 in 10.0 mi SW 4.6 mph - N/A   Clear
10:53 PM 75.9 °F - 73.9 °F 94% 29.84 in 8.0 mi Calm Calm - N/A   Clear
11:53 PM 75.0 °F - 73.0 °F 94% 29.84 in 7.0 mi SSW 3.5 mph - N/A   Clear